This demonstration page uses our WeatherBlox Daily Observations layout. Learn more.

Left ArrowRight Arrow

40.97296, -117.73568

Hourly Observations for August 9, 2022

Temp ( °F °C ) Dew Point ( °F °C ) Humidity (%) Winds ( mph kmh ) Pressure ( in mb ) Visibility ( mi km ) Precip ( " mm )
12:56 am 00:56 Clear 70 21.1 54 12.2 57 57 undefined N/A 29.94 1014 10 16 0.01 0.13
1:56 am 01:56 Clear 67 19.4 54 12.2 63 63 E 7 11 29.93 1014 10 16 0.00 0.00
2:56 am 02:56 Partly Cloudy 67 19.4 54 12.2 63 63 S 6 9 29.93 1014 10 16 0.00 0.00
3:56 am 03:56 Partly Cloudy 69 20.6 56 13.3 63 63 ENE 6 9 29.97 1015 10 16 0.00 0.00
4:56 am 04:56 Cloudy with Light Rain 66 18.9 58 14.4 75 75 VRB 3 6 29.96 1015 5 8 0.04 1.02
5:56 am 05:56 Mostly Sunny 66 18.9 59 15 78 78 N 6 9 29.95 1014 10 16 0.01 0.13
6:56 am 06:56 Sunny 67 19.4 60 15.6 79 79 SE 5 7 29.98 1015 10 16 0.00 0.00
7:19 am 07:19 Mostly Cloudy with Nearby Thunderstorms 67 19.4 60 15.6 79 79 SSW 3 6 29.94 1014 10 16 0.00 0.00
7:34 am 07:34 Mostly Cloudy 70 21.1 59 15 68 68 ENE 6 9 29.91 1013 10 16 0.00 0.00
7:56 am 07:56 Sunny 71 21.7 60 15.6 68 68 ENE 7 11 29.99 1016 10 16 0.00 0.00
8:56 am 08:56 Sunny 79 26.1 57 13.9 47 47 NE 12 19 29.96 1015 10 16 0.00 0.00
9:56 am 09:56 Partly Cloudy 80 26.7 56 13.3 44 44 NNE 14 22 29.96 1015 10 16 0.00 0.00
10:56 am 10:56 Partly Cloudy 83 28.3 54 12.2 37 37 NNE 5 7 29.95 1014 10 16 0.00 0.00
11:56 am 11:56 Cloudy with Light Rain 72 22.2 61 16.1 68 68 S 7 11 30.03 1017 8 13 0.01 0.13
12:56 pm 12:56 Mostly Cloudy 77 25 60 15.6 56 56 Calm 29.98 1015 10 16 0.01 0.25
1:56 pm 13:56 Mostly Sunny 82 27.8 59 15 46 46 NE 17 28 29.95 1014 10 16 0.00 0.00
2:56 pm 14:56 Sunny 84 28.9 58 14.4 41 41 NNE 21 33 29.91 1013 10 16 0.00 0.00
3:56 pm 15:56 Mostly Cloudy 84 28.9 58 14.4 41 41 NE 16 26 29.88 1012 10 16 0.00 0.00
4:04 pm 16:04 Mostly Cloudy with Nearby Thunderstorms 81 27.2 61 16.1 51 51 NNE 14 22 29.72 1006 9 14 0.01 0.13
4:19 pm 16:19 Mostly Cloudy with Light Rain 80 26.7 59 15 49 49 SE 8 13 29.74 1007 10 16 0.01 0.13
4:44 pm 16:44 Mostly Cloudy with Nearby Thunderstorms 74 23.3 64 17.8 71 71 SSE 9 15 29.78 1009 9 14 0.01 0.13
4:56 pm 16:56 Mostly Cloudy with Nearby Thunderstorms 72 22.2 64 17.8 76 76 S 14 22 29.95 1014 10 16 0.01 0.25
5:11 pm 17:11 Cloudy with Nearby Thunderstorms 70 21.1 64 17.8 81 81 S 13 20 29.90 1012 8 13 0.01 0.13
5:32 pm 17:32 Cloudy with Rain 66 18.9 62 16.7 87 87 SSE 25 41 29.94 1014 4 6 0.06 1.52
5:56 pm 17:56 Cloudy with Rain 65 18.3 60 15.6 84 84 SSE 17 28 30.01 1016 7 11 0.11 2.79
6:56 pm 18:56 Mostly Sunny 66 18.9 62 16.7 87 87 S 8 13 29.94 1014 10 16 0.04 1.02
7:56 pm 19:56 Sunny 66 18.9 62 16.7 87 87 ENE 13 20 29.97 1015 10 16 0.00 0.00
8:56 pm 20:56 Mostly Cloudy with Light Rain 67 19.4 61 16.1 81 81 ENE 8 13 30.02 1017 10 16 0.01 0.13
9:56 pm 21:56 Mostly Clear 67 19.4 62 16.7 84 84 NNE 7 11 30.01 1016 10 16 0.01 0.25
10:56 pm 22:56 Clear 66 18.9 62 16.7 87 87 Calm 30.00 1016 10 16 0.00 0.00
11:56 pm 23:56 Mostly Clear 65 18.3 63 17.2 93 93 undefined N/A 30.03 1017 10 16 0.00 0.00

Powered by AerisWeather